This demonstration page uses our WeatherBlox Daily Observations layout. Learn more.

Left ArrowRight Arrow

39.08367, -84.50855

Hourly Observations for December 19, 2015

Temp ( °F °C ) Dew Point ( °F °C ) Humidity (%) Winds ( mph kmh ) Pressure ( in mb ) Visibility ( mi km ) Precip ( " mm )
12:53 am 00:53 Cloudy 31 -0.6 17 -8.3 56 56 SW 9 15 30.22 1023 10 16 0.00 0.00
1:53 am 01:53 Mostly Cloudy 31 -0.6 18 -7.8 59 59 SSW 10 17 30.22 1023 10 16 0.00 0.00
2:53 am 02:53 Mostly Clear 28 -2.2 18 -7.8 66 66 SSW 9 15 30.23 1024 10 16 0.00 0.00
3:53 am 03:53 Clear 27 -2.8 18 -7.8 69 69 SSW 8 13 30.24 1024 10 16 0.00 0.00
4:53 am 04:53 Clear 27 -2.8 19 -7.2 72 72 SSW 8 13 30.25 1025 10 16 0.00 0.00
5:53 am 05:53 Mostly Clear 29 -1.7 19 -7.2 66 66 WSW 12 19 30.28 1025 10 16 0.00 0.00
6:53 am 06:53 Mostly Clear 28 -2.2 19 -7.2 69 69 WSW 10 17 30.31 1026 10 16 0.00 0.00
7:53 am 07:53 Sunny 28 -2.2 19 -7.2 69 69 W 12 19 30.35 1028 10 16 0.00 0.00
8:53 am 08:53 Sunny 30 -1.1 18 -7.8 61 61 WNW 16 26 30.38 1029 10 16 0.00 0.00
9:53 am 09:53 Sunny 30 -1.1 18 -7.8 61 61 W 15 24 30.43 1030 10 16 0.00 0.00
10:53 am 10:53 Sunny 31 -0.6 11 -11.7 43 43 WNW 13 20 30.47 1032 10 16 0.00 0.00
11:53 am 11:53 Sunny 32 0 12 -11.1 43 43 WSW 12 19 30.46 1032 10 16 0.00 0.00
12:53 pm 12:53 Sunny 34 1.1 12 -11.1 40 40 WSW 9 15 30.45 1031 10 16 0.00 0.00
1:53 pm 13:53 Sunny 35 1.7 10 -12.2 35 35 W 10 17 30.46 1031 10 16 0.00 0.00
2:53 pm 14:53 Sunny 36 2.2 11 -11.7 35 35 WSW 10 17 30.46 1032 10 16 0.00 0.00
3:53 pm 15:53 Sunny 36 2.2 12 -11.1 37 37 W 10 17 30.47 1032 10 16 0.00 0.00
4:53 pm 16:53 Sunny 35 1.7 13 -10.6 40 40 WSW 6 9 30.48 1032 10 16 0.00 0.00
5:53 pm 17:53 Clear 31 -0.6 14 -10 49 49 WSW 7 11 30.50 1033 10 16 0.00 0.00
6:53 pm 18:53 Clear 30 -1.1 14 -10 51 51 SW 6 9 30.52 1033 10 16 0.00 0.00
7:53 pm 19:53 Clear 29 -1.7 17 -8.3 61 61 Calm 30.53 1034 10 16 0.00 0.00
8:53 pm 20:53 Clear 27 -2.8 18 -7.8 69 69 Calm 30.53 1034 10 16 0.00 0.00
9:53 pm 21:53 Clear 26 -3.3 20 -6.7 78 78 Calm 30.53 1034 10 16 0.00 0.00
10:53 pm 22:53 Clear 24 -4.4 19 -7.2 81 81 Calm 30.53 1034 10 16 0.00 0.00
11:53 pm 23:53 Clear 23 -5 19 -7.2 85 85 Calm 30.54 1034 10 16 0.00 0.00

Powered by AerisWeather